Regional Weather Roundup
Issued by NWS

Home | Current Version | Previous Version | Graphics & Text | Print | Product List | Glossary On
Versions: 1 2 3 4 5 6 7 8 9 10 11 12 13 14 15 16 17 18 19 20 21 22 23 24 25 26 27 28 29 30 31 32 33 34 35 36 37 38 39 40 41 42 43 44 45 46 47 48 49 50
000
ASUS43 KDTX 290210
RWRMI
MICHIGAN HOURLY REGIONAL WEATHER ROUNDUP
NATIONAL WEATHER SERVICE DETROIT/PONTIAC MI
1000 PM EDT TUE MAR 28 2017

NOTE: "FAIR" INDICATES FEW OR NO CLOUDS BELOW 12,000 FEET WITH NO
SIGNIFICANT WEATHER AND/OR OBSTRUCTION TO VISIBILITY.

MIZ047>049-052>055-059>063-066>070-074>076-081>083-290300-
SOUTHEAST LOWER MICHIGAN

CITY           SKY/WX    TMP DP  RH WIND       PRES   REMARKS
ADRIAN         CLEAR     40  37  89 N3        30.20R
ALMA           CLEAR     39  37  94 NE8       30.22R WCI  33
ANN ARBOR      CLEAR     42  35  76 N5        30.18R
BAD AXE        CLEAR     34  30  87 N3        30.23R
CARO           CLEAR     35  32  89 CALM      30.21R
DETROIT CITY   CLEAR     41  35  79 N7        30.20R
DETROIT        PTCLDY    44  36  73 NE5       30.19R
FLINT          CLEAR     40  34  79 NE5       30.21R
GROSSE ILE     CLEAR     40  35  84 NE7       30.18R WCI  35
HILLSDALE      CLEAR     36  34  93 CALM      30.18R
HOWELL         CLEAR     40  33  78 CALM      30.20R

CITY           SKY/WX    TMP DP  RH WIND       PRES   REMARKS
JACKSON        CLEAR     39  34  82 CALM      30.19R
LAMBERTVILLE   CLEAR     42  37  83 NW3       30.18R
LANSING        CLEAR     41  33  73 CALM      30.21R
LAPEER         FAIR      36  32  87 CALM      30.21R
MASON          CLEAR     38  35  86 CALM      30.21R
MONROE         CLEAR     42  39  88 CALM      30.18R
MT. CLEMENS    CLEAR     37  33  84 N7        30.18R WCI  32
PONTIAC        CLEAR     40  33  76 NE8       30.18R WCI  34
PORT HOPE        N/A     33  31  92 NW3       30.21R
PORT HURON     CLEAR     36  30  80 N7        30.20R WCI  30
TRI CITIES     CLEAR     36  34  92 NE7       30.23R WCI  30
MIDLAND        FAIR      38  31  76 NE3       30.22R
TROY           CLEAR     42  33  71 N6        30.21R
SAGINAW HB     CLEAR     36  32  87 N3        30.22R
$$
MIZ043>046-050>051-056>058-064>065-071>073-077>080-290300-
SOUTHWEST LOWER MICHIGAN

CITY           SKY/WX    TMP DP  RH WIND       PRES   REMARKS
BATTLE CREEK   CLEAR     39  35  86 CALM      30.20R
BENTON HARBOR  CLEAR     37  34  89 VRB3      30.21R
BIG RAPIDS     CLEAR     44  33  66 CALM      30.19R
COLDWATER      CLEAR     39  36  89 CALM      30.19R
FREMONT        FAIR      42  36  80 SW3       30.19R
HOLLAND        CLEAR     37  34  89 W3        30.21R
GRAND RAPIDS   CLEAR     41  36  82 CALM      30.20R
IONIA          FAIR      39  36  91 CALM      30.20R
KALAMAZOO      CLEAR     39  33  79 CALM      30.20R
LUDINGTON      CLEAR     35  34  98 CALM      30.21R
MARSHALL       CLEAR     39  36  89 CALM      30.19R
MOUNT PLEASANT CLEAR     40  33  76 E6        30.22R
MUSKEGON       FOG       35  34  96 CALM      30.21R VSB 3/4
SOUTH HAVEN    CLEAR     33  32  96 CALM      30.22R
$$
MIZ016>042-290300-
NORTHERN LOWER MICHIGAN

CITY           SKY/WX    TMP DP  RH WIND       PRES   REMARKS
ALPENA         CLEAR     34  32  92 CALM      30.22R
BEAVER ISLAND  FOG       29  29  99 W3        30.24R VSB 1/2
BELLAIRE       CLEAR     35  31  86 CALM      30.24R
CADILLAC       CLEAR     38  33  82 N3        30.20R
CHARLEVOIX     CLEAR     32  32 100 CALM      30.26R
FRANKFORT      CLEAR     33  31  90 CALM      30.22R
GAYLORD        CLEAR     39  26  59 CALM      30.21R
GRAYLING       CLEAR     32  27  80 CALM      30.23R
HARBOR SPRINGS CLEAR     29  29 100 CALM      30.23R
HOUGHTON LAKE  CLEAR     42  28  57 NE3       30.21R
MANISTEE       CLEAR     33  31  92 E3        30.21R
OSCODA         CLEAR     32  27  79 SW5       30.21R WCI  28
PELLSTON       CLEAR     32  28  85 CALM      30.23R
ROGERS CITY    CLEAR     39  30  71 CALM      30.22S
TRAVERSE CITY  PTCLDY    34  31  88 CALM      30.22R
$$
MIZ007>008-015-290300-
EASTERN UPPER MICHIGAN

CITY           SKY/WX    TMP DP  RH WIND       PRES   REMARKS
KINROSS        PTCLDY    35  30  82 NW3       30.22R
MACKINAC ISLAN CLEAR     34  30  85 NW5       30.22R WCI  30
NEWBERRY       MOCLDY    38  29  72 N6        30.22R WCI  33
S. S. MARIE    CLEAR     35  29  78 W7        30.21R WCI  29
MUNISING         N/A     35  34  96 NW5       30.25R WCI  31
$$
MIZ004>006-011>014-085-290300-
CENTRAL UPPER MICHIGAN

CITY           SKY/WX    TMP DP  RH WIND       PRES   REMARKS
MANISTIQUE     CLEAR     27  27  97 W3        30.23R
ESCANABA       CLOUDY    29  28  96 CALM      30.25R
MENOMINEE        N/A    N/A N/A N/A MISG        N/A
SAWYER-GWINN   PTCLDY    36  28  75 CALM      30.24R
$$
MIZ001>003-009>011-084-290300-
WESTERN UPPER MICHIGAN

CITY           SKY/WX    TMP DP  RH WIND       PRES   REMARKS
IRON MOUNTAIN  PTCLDY    45  28  51 E5        30.22R
HOUGHTON       CLEAR     35  28  75 CALM      30.25R
COPPER HARBOR    N/A     30  28  92 CALM      30.27R
IRONWOOD       CLEAR     38  27  64 E6        30.22R WCI  33
$$

ABBREVIATIONS USED IN REMARKS
   TC - TEMPERATURE IN CELSIUS
  WCI - WIND CHILL INDEX
   HX - HEAT INDEX
  VSB - VISIBILITY





USA.gov is the U.S. government's official web portal to all federal, state and local government web resources and services.